Hannover, Germany

4:52 PM CEST on July 23, 2017 (GMT +0200)
Hannover

Weather History for EDDV - May, 2017

Change the Weather History Date:

Saturday, May 20, 2017

  Actual Average Record
Temperature  
Mean Temperature 58 °F -  
Max Temperature 66 °F 68 °F 82 °F (2014)
Min Temperature 50 °F 49 °F 35 °F (2008)
Degree Days  
Heating Degree Days 7    
Growing Degree Days 8 (Base 50)    
Moisture  
Dew Point 48 °F    
Average Humidity 71    
Maximum Humidity 100    
Minimum Humidity 45    
Precipitation  
Precipitation 0.00 in 0.09 in - ()
Sea Level Pressure  
Sea Level Pressure 30.11 in    
Wind  
Wind Speed 7 mph ()    
Max Wind Speed 13 mph    
Max Gust Speed -    
Visibility 5.4 miles    
Events Rain    
Averages and records for this station are not official NWS values.
T = Trace of Precipitation, MM = Missing Value Source: Averaged Metar Reports

Daily Weather History Graph

Daily Weather History Graph

Search for Another Location

Airport or City:

Trip Planner

Search our weather history database for the weather conditions in past years. The results will help you decide how hot, cold, wet, or windy it might be!

Date:

Astronomy

May. 20, 2017 Rise Set
Actual Time 5:17 AM CEST 9:18 PM CEST
Civil Twilight 4:33 AM CEST 10:03 PM CEST
Nautical Twilight 3:30 AM CEST 11:06 PM CEST
Astronomical Twilight 1:50 AM CEST 12:45 AM CEST
Moon 3:07 AM CEST (5/20) 2:10 PM CEST (5/20)
Length of Visible Light 17h 29m
Length of Day
16h 00m
Waning Crescent, 36% of the Moon is Illuminated
May 20
Waning Crescent
May 25
New
Jun 1
First Quarter
Jun 9
Full
Jun 17
Last Quarter

Hourly Weather History & Observations

Time (CEST) Temp. Dew Point Humidity Pressure Visibility Wind Dir Wind Speed Gust Speed Precip Events Conditions
12:20 AM 51.8 °F 50.0 °F 94% 29.95 in 6.2 mi West 9.2 mph - N/A   Mostly Cloudy
12:50 AM 51.8 °F 50.0 °F 94% 29.95 in 6.2 mi West 6.9 mph - N/A   Mostly Cloudy
1:20 AM 51.8 °F 50.0 °F 94% 29.98 in 5.0 mi WSW 6.9 mph - N/A Rain Light Rain
1:50 AM 51.8 °F 50.0 °F 94% 29.95 in 5.0 mi West 8.1 mph - N/A Rain Light Rain
2:20 AM 51.8 °F 50.0 °F 94% 29.98 in 3.7 mi West 5.8 mph - N/A   Mostly Cloudy
2:50 AM 51.8 °F 50.0 °F 94% 29.98 in 3.7 mi WSW 6.9 mph - N/A   Mostly Cloudy
3:20 AM 51.8 °F 50.0 °F 94% 29.98 in 4.3 mi WSW 8.1 mph - N/A   Mostly Cloudy
3:50 AM 51.8 °F 50.0 °F 94% 30.01 in 4.3 mi WSW 4.6 mph - N/A   Mostly Cloudy
4:20 AM 51.8 °F 50.0 °F 94% 30.01 in 4.3 mi WSW 5.8 mph - N/A   Mostly Cloudy
4:50 AM 51.8 °F 50.0 °F 94% 30.01 in 3.7 mi WSW 4.6 mph - N/A   Mostly Cloudy
5:20 AM 50.0 °F 48.2 °F 94% 30.01 in 3.7 mi Variable 2.3 mph - N/A   Mostly Cloudy
5:50 AM 50.0 °F 50.0 °F 100% 30.01 in 3.7 mi West 2.3 mph - N/A   Mostly Cloudy
6:20 AM 51.8 °F 50.0 °F 94% 30.01 in 3.7 mi WSW 6.9 mph - N/A   Mostly Cloudy
6:50 AM 51.8 °F 50.0 °F 94% 30.04 in 3.7 mi WSW 8.1 mph - N/A   Partly Cloudy
7:20 AM 53.6 °F 50.0 °F 88% 30.04 in 5.0 mi WSW 5.8 mph - N/A   Partly Cloudy
7:50 AM 53.6 °F 50.0 °F 88% 30.06 in 6.2 mi WSW 9.2 mph - N/A   Scattered Clouds
8:20 AM 55.4 °F 48.2 °F 77% 30.06 in 6.2 mi WSW 10.4 mph - N/A   Partly Cloudy
8:50 AM 55.4 °F 48.2 °F 77% 30.06 in 6.2 mi West 10.4 mph - N/A   Partly Cloudy
9:20 AM 57.2 °F 48.2 °F 72% 30.09 in 6.2 mi WSW 10.4 mph - N/A   Partly Cloudy
9:50 AM 57.2 °F 48.2 °F 72% 30.09 in 6.2 mi West 10.4 mph - N/A   Partly Cloudy
10:20 AM 59.0 °F 48.2 °F 67% 30.09 in 6.2 mi West 10.4 mph - N/A   Partly Cloudy
10:50 AM 60.8 °F 50.0 °F 68% 30.09 in 6.2 mi WSW 12.7 mph - N/A   Partly Cloudy
11:20 AM 59.0 °F 48.2 °F 67% 30.12 in 6.2 mi WSW 9.2 mph - N/A   Partly Cloudy
11:50 AM 60.8 °F 48.2 °F 63% 30.12 in 6.2 mi West 12.7 mph - N/A   Partly Cloudy
12:20 PM 60.8 °F 48.2 °F 63% 30.12 in 6.2 mi West 10.4 mph - N/A   Scattered Clouds
12:50 PM 62.6 °F 46.4 °F 55% 30.12 in 6.2 mi WSW 9.2 mph - N/A   Scattered Clouds
1:20 PM 60.8 °F 48.2 °F 63% 30.15 in 6.2 mi West 12.7 mph - N/A   Scattered Clouds
1:50 PM 62.6 °F 46.4 °F 55% 30.15 in 6.2 mi West 10.4 mph - N/A   Partly Cloudy
2:20 PM 64.4 °F 48.2 °F 56% 30.15 in 6.2 mi West 8.1 mph - N/A   Partly Cloudy
2:50 PM 64.4 °F 48.2 °F 56% 30.15 in 6.2 mi West 10.4 mph - N/A   Partly Cloudy
3:20 PM 64.4 °F 46.4 °F 52% 30.15 in 6.2 mi West 11.5 mph - N/A   Partly Cloudy
3:50 PM 64.4 °F 44.6 °F 49% 30.15 in 6.2 mi West 11.5 mph - N/A   Partly Cloudy
4:20 PM 66.2 °F 46.4 °F 49% 30.18 in 6.2 mi West 11.5 mph - N/A   Partly Cloudy
4:50 PM 64.4 °F 44.6 °F 49% 30.18 in - West 11.5 mph - N/A   Clear
5:20 PM 66.2 °F 44.6 °F 46% 30.18 in - West 10.4 mph - N/A   Clear
5:50 PM 66.2 °F 44.6 °F 46% 30.18 in - West 9.2 mph - N/A   Clear
6:20 PM 64.4 °F 46.4 °F 52% 30.18 in - WSW 8.1 mph - N/A   Clear
6:50 PM 64.4 °F 42.8 °F 45% 30.18 in - WNW 9.2 mph - N/A   Clear
7:20 PM 64.4 °F 44.6 °F 49% 30.21 in - WNW 6.9 mph - N/A   Clear
7:50 PM 62.6 °F 42.8 °F 48% 30.21 in - West 6.9 mph - N/A   Clear
8:20 PM 62.6 °F 44.6 °F 52% 30.21 in - West 4.6 mph - N/A   Clear
8:50 PM 60.8 °F 44.6 °F 55% 30.21 in - West 4.6 mph - N/A   Clear
9:20 PM 59.0 °F 44.6 °F 59% 30.24 in - West 4.6 mph - N/A   Clear
9:50 PM 57.2 °F 44.6 °F 63% 30.24 in - West 3.5 mph - N/A   Clear
10:20 PM 55.4 °F 44.6 °F 67% 30.24 in - West 3.5 mph - N/A   Clear
10:50 PM 53.6 °F 46.4 °F 77% 30.27 in - WNW 3.5 mph - N/A   Clear
11:20 PM 51.8 °F 46.4 °F 82% 30.27 in - WNW 3.5 mph - N/A   Clear
11:50 PM 51.8 °F 46.4 °F 82% 30.27 in - WNW 4.6 mph - N/A   Clear